N674CK KCOS-

Flight info

Callsign N674CK
Flight time N/A
Altitude VFR
Route PATTERNWORK
Aircraft BE20/L-VGDW/C

Departure

Time 2026-04-25 22:27
Airport City of Colorado Springs Municipal Airport (KCOS)

Arrival

Time N/A
Airport -
Time Latitude Longitude Altitude Speed Heading
2026-04-25 22:17 38.80044 -104.70302 6190 ft 0 kts 110°
2026-04-25 22:19 38.80056 -104.70287 6190 ft 5 kts 58°
2026-04-25 22:19 38.80060 -104.70268 6190 ft 1 kts 50°
2026-04-25 22:20 38.80075 -104.70351 6190 ft 19 kts 274°
2026-04-25 22:20 38.80140 -104.70437 6178 ft 17 kts
2026-04-25 22:20 38.80261 -104.70442 6190 ft 13 kts 333°
2026-04-25 22:20 38.80279 -104.70558 6190 ft 16 kts 270°
2026-04-25 22:21 38.80280 -104.70725 6190 ft 22 kts 270°
2026-04-25 22:21 38.80280 -104.70946 6190 ft 27 kts 270°
2026-04-25 22:21 38.80280 -104.71163 6190 ft 16 kts 270°
2026-04-25 22:21 38.80279 -104.71237 6190 ft 0 kts 270°
2026-04-25 22:22 38.80281 -104.71312 6190 ft 17 kts 280°
2026-04-25 22:22 38.80377 -104.71348 6189 ft 19 kts 360°
2026-04-25 22:22 38.80538 -104.71348 6190 ft 19 kts
2026-04-25 22:23 38.80677 -104.71348 6190 ft 23 kts
2026-04-25 22:23 38.80845 -104.71348 6190 ft 26 kts
2026-04-25 22:23 38.80894 -104.71348 6190 ft 0 kts
2026-04-25 22:24 38.80914 -104.71347 6190 ft 15 kts
2026-04-25 22:24 38.81083 -104.71347 6190 ft 28 kts 360°
2026-04-25 22:25 38.81266 -104.71347 6189 ft 25 kts
2026-04-25 22:25 38.81440 -104.71347 6189 ft 23 kts 359°
2026-04-25 22:25 38.81603 -104.71347 6189 ft 23 kts
2026-04-25 22:25 38.81781 -104.71346 6189 ft 27 kts
2026-04-25 22:26 38.81961 -104.71345 6190 ft 24 kts 360°
2026-04-25 22:26 38.82103 -104.71339 6191 ft 12 kts 14°
2026-04-25 22:26 38.82114 -104.71261 6191 ft 11 kts 140°
2026-04-25 22:26 38.81863 -104.70954 6190 ft 92 kts 136°
2026-04-25 22:27 38.81262 -104.70178 6241 ft 147 kts 138°
2026-04-25 22:27 38.80532 -104.69205 6705 ft 164 kts 136°
2026-04-25 22:27 38.79686 -104.68066 6973 ft 188 kts 136°
2026-04-25 22:27 38.78728 -104.66819 7186 ft 208 kts 137°
2026-04-25 22:28 38.77959 -104.65269 7054 ft 214 kts 103°
2026-04-25 22:28 38.78278 -104.63453 6889 ft 219 kts 59°
2026-04-25 22:28 38.79348 -104.62061 6671 ft 215 kts 52°
2026-04-25 22:28 38.80395 -104.60709 6880 ft 212 kts 42°
2026-04-25 22:29 38.81811 -104.60418 6846 ft 220 kts 339°
2026-04-25 22:29 38.82967 -104.61660 6885 ft 216 kts 316°
2026-04-25 22:29 38.84049 -104.62996 7147 ft 214 kts 318°
2026-04-25 22:30 38.86160 -104.65527 7267 ft 184 kts 317°
2026-04-25 22:30 38.87039 -104.66615 7206 ft 170 kts 316°
2026-04-25 22:30 38.87834 -104.67721 7051 ft 172 kts 313°
2026-04-25 22:30 38.88372 -104.68486 7108 ft 173 kts 313°
2026-04-25 22:31 38.89123 -104.70220 7235 ft 184 kts 255°
2026-04-25 22:31 38.88305 -104.71409 7402 ft 196 kts 206°
2026-04-25 22:31 38.87149 -104.72467 7560 ft 210 kts 219°
2026-04-25 22:31 38.85885 -104.73499 7483 ft 208 kts 203°
2026-04-25 22:32 38.84545 -104.73797 7091 ft 192 kts 170°
2026-04-25 22:32 38.83434 -104.72994 6618 ft 184 kts 133°
2026-04-25 22:32 38.82584 -104.71828 6298 ft 171 kts 138°
2026-04-25 22:32 38.81773 -104.70834 6191 ft 144 kts 136°
2026-04-25 22:33 38.80985 -104.69851 6278 ft 172 kts 135°
2026-04-25 22:33 38.80216 -104.68768 6669 ft 163 kts 129°
2026-04-25 22:33 38.79500 -104.67565 6664 ft 177 kts 128°
2026-04-25 22:33 38.78757 -104.66335 6714 ft 167 kts 131°
2026-04-25 22:34 38.78052 -104.65221 6653 ft 155 kts 120°
2026-04-25 22:34 38.78247 -104.63898 6516 ft 177 kts 50°
2026-04-25 22:34 38.79120 -104.62669 6489 ft 191 kts 47°
2026-04-25 22:34 38.80188 -104.61758 6631 ft 193 kts
2026-04-25 22:35 38.81354 -104.62582 6718 ft 201 kts 315°
2026-04-25 22:35 38.82302 -104.63830 6903 ft 190 kts 316°
2026-04-25 22:35 38.83234 -104.64979 6968 ft 184 kts 318°
2026-04-25 22:35 38.84189 -104.66045 6932 ft 179 kts 322°
2026-04-25 22:36 38.85131 -104.67072 6878 ft 177 kts 320°
2026-04-25 22:36 38.86027 -104.68134 6878 ft 171 kts 315°
2026-04-25 22:36 38.86812 -104.69195 7024 ft 161 kts 314°
2026-04-25 22:36 38.87264 -104.70447 6989 ft 161 kts 261°
2026-04-25 22:37 38.86570 -104.71494 6870 ft 164 kts 206°
2026-04-25 22:37 38.85541 -104.72101 6817 ft 160 kts 202°
2026-04-25 22:37 38.84464 -104.72276 6663 ft 156 kts 177°
2026-04-25 22:37 38.83403 -104.72117 6540 ft 151 kts 173°
2026-04-25 22:38 38.82443 -104.71656 6269 ft 146 kts 141°
2026-04-25 22:38 38.81739 -104.70804 6191 ft 129 kts 133°
2026-04-25 22:38 38.81072 -104.69941 6201 ft 160 kts 134°
2026-04-25 22:38 38.80257 -104.68849 6660 ft 172 kts 133°
2026-04-25 22:39 38.79454 -104.67660 7146 ft 187 kts 129°
2026-04-25 22:39 38.79192 -104.65947 7019 ft 225 kts 71°
2026-04-25 22:39 38.80127 -104.64315 7096 ft 238 kts 45°
2026-04-25 22:39 38.81575 -104.63287 7074 ft 249 kts 358°
2026-04-25 22:40 38.82989 -104.64254 7055 ft 224 kts 317°
2026-04-25 22:40 38.84035 -104.65592 6985 ft 203 kts 315°
2026-04-25 22:40 38.84960 -104.66813 7066 ft 179 kts 311°
2026-04-25 22:40 38.85740 -104.68012 7088 ft 177 kts 307°
2026-04-25 22:41 38.86464 -104.69355 7121 ft 182 kts 297°
2026-04-25 22:41 38.86554 -104.70921 7152 ft 188 kts 249°
2026-04-25 22:41 38.85644 -104.72158 7133 ft 196 kts 216°
2026-04-25 22:41 38.84514 -104.72899 6968 ft 174 kts 180°
2026-04-25 22:42 38.83374 -104.72557 6603 ft 166 kts 160°
2026-04-25 22:42 38.82461 -104.71701 6262 ft 159 kts 136°
2026-04-25 22:42 38.81717 -104.70766 6191 ft 141 kts 135°
2026-04-25 22:42 38.80920 -104.69738 6391 ft 173 kts 134°
2026-04-25 22:43 38.80112 -104.68578 6921 ft 181 kts 131°
2026-04-25 22:43 38.79310 -104.67334 7268 ft 177 kts 122°
2026-04-25 22:43 38.79214 -104.65774 7074 ft 190 kts 62°
2026-04-25 22:43 38.80067 -104.64437 7026 ft 199 kts 50°
2026-04-25 22:44 38.81100 -104.63372 6948 ft 195 kts 359°
2026-04-25 22:44 38.82185 -104.64258 6932 ft 192 kts 316°
2026-04-25 22:44 38.83125 -104.65475 6950 ft 192 kts 316°
2026-04-25 22:44 38.84074 -104.66649 7008 ft 188 kts 316°
2026-04-25 22:45 38.84983 -104.67825 7113 ft 183 kts 316°
2026-04-25 22:45 38.85861 -104.69014 7192 ft 182 kts 314°
2026-04-25 22:45 38.86556 -104.70338 7253 ft 180 kts 282°
2026-04-25 22:45 38.86059 -104.71601 7106 ft 180 kts 192°
2026-04-25 22:46 38.84801 -104.71600 6686 ft 180 kts 181°
2026-04-25 22:46 38.83596 -104.71588 6436 ft 165 kts 181°
2026-04-25 22:46 38.82495 -104.71592 6238 ft 151 kts 181°
2026-04-25 22:46 38.81508 -104.71592 6188 ft 131 kts 181°
2026-04-25 22:47 38.80556 -104.71590 6209 ft 159 kts 180°
2026-04-25 22:47 38.79335 -104.71570 6453 ft 184 kts 181°
2026-04-25 22:47 38.78051 -104.71525 7034 ft 185 kts 178°
2026-04-25 22:47 38.76752 -104.71856 7204 ft 211 kts 218°
2026-04-25 22:48 38.76114 -104.73523 7331 ft 217 kts 268°
2026-04-25 22:48 38.76300 -104.75392 7411 ft 214 kts 298°
2026-04-25 22:48 38.77480 -104.76352 7306 ft 202 kts
2026-04-25 22:48 38.78844 -104.76254 7024 ft 192 kts
2026-04-25 22:49 38.80178 -104.76260 6925 ft 200 kts
2026-04-25 22:49 38.81590 -104.76266 6943 ft 203 kts 360°
2026-04-25 22:49 38.82991 -104.76289 6978 ft 198 kts
2026-04-25 22:49 38.84347 -104.76261 7018 ft 191 kts
2026-04-25 22:50 38.85484 -104.75514 7053 ft 186 kts 52°
2026-04-25 22:50 38.85889 -104.73980 7027 ft 185 kts 85°
2026-04-25 22:50 38.85524 -104.72499 6983 ft 181 kts 141°
2026-04-25 22:50 38.84461 -104.71705 6666 ft 177 kts 170°
2026-04-25 22:51 38.83255 -104.71600 6394 ft 171 kts 180°
2026-04-25 22:51 38.82090 -104.71592 6199 ft 163 kts 181°
2026-04-25 22:51 38.81017 -104.71590 6190 ft 150 kts 180°
2026-04-25 22:51 38.79831 -104.71588 6269 ft 185 kts 180°
2026-04-25 22:52 38.78569 -104.71577 6572 ft 177 kts 181°
2026-04-25 22:52 38.77370 -104.71763 6776 ft 175 kts 211°
2026-04-25 22:52 38.76642 -104.72976 6949 ft 177 kts 256°
2026-04-25 22:52 38.76565 -104.74002 7131 ft 174 kts 273°
2026-04-25 22:53 38.77293 -104.75749 6977 ft 176 kts 346°
2026-04-25 22:53 38.78471 -104.75830 6838 ft 169 kts
2026-04-25 22:53 38.79658 -104.75789 6773 ft 173 kts
2026-04-25 22:53 38.80891 -104.75849 6825 ft 181 kts 358°
2026-04-25 22:54 38.82164 -104.75913 6892 ft 185 kts 359°
2026-04-25 22:54 38.83452 -104.75952 7006 ft 186 kts
2026-04-25 22:54 38.84316 -104.75963 7058 ft 187 kts
2026-04-25 22:54 38.85575 -104.74710 7124 ft 186 kts 74°
2026-04-25 22:55 38.85669 -104.73050 7042 ft 189 kts 108°
2026-04-25 22:55 38.84846 -104.71819 6847 ft 187 kts 159°
2026-04-25 22:55 38.83979 -104.71611 6529 ft 189 kts 179°
2026-04-25 22:55 38.82691 -104.71601 6267 ft 181 kts 181°
2026-04-25 22:56 38.81491 -104.71597 6188 ft 166 kts 173°
2026-04-25 22:56 38.80313 -104.71592 6253 ft 184 kts 181°
2026-04-25 22:56 38.78990 -104.71576 6697 ft 189 kts 180°
2026-04-25 22:56 38.77655 -104.71742 7102 ft 202 kts 208°
2026-04-25 22:57 38.76900 -104.73185 7247 ft 204 kts 264°
2026-04-25 22:57 38.76978 -104.75014 7294 ft 207 kts 276°
2026-04-25 22:57 38.77620 -104.76595 7433 ft 212 kts 327°
2026-04-25 22:57 38.79037 -104.77319 7452 ft 228 kts 346°
2026-04-25 22:58 38.80587 -104.77565 7440 ft 222 kts 356°
2026-04-25 22:58 38.82070 -104.77172 7315 ft 224 kts 28°
2026-04-25 22:58 38.83220 -104.75956 7137 ft 206 kts 55°
2026-04-25 22:58 38.83576 -104.74320 6914 ft 190 kts 100°
2026-04-25 22:59 38.83152 -104.72743 6557 ft 187 kts 123°
2026-04-25 22:59 38.82298 -104.71508 6228 ft 183 kts 137°
2026-04-25 22:59 38.81462 -104.70437 6192 ft 153 kts 137°
2026-04-25 22:59 38.80616 -104.69358 6290 ft 187 kts 134°
2026-04-25 23:00 38.79678 -104.68130 6729 ft 198 kts 136°
2026-04-25 23:00 38.78665 -104.66843 7015 ft 216 kts 136°
2026-04-25 23:00 38.78120 -104.65251 7002 ft 193 kts 70°
2026-04-25 23:00 38.78609 -104.63765 6889 ft 171 kts 68°
2026-04-25 23:01 38.79363 -104.62715 6721 ft 157 kts 25°
2026-04-25 23:01 38.80392 -104.62616 6470 ft 151 kts 331°
2026-04-25 23:01 38.81198 -104.63479 6355 ft 149 kts 319°
2026-04-25 23:01 38.81930 -104.64411 6576 ft 153 kts 313°
2026-04-25 23:02 38.82624 -104.65438 6838 ft 145 kts 311°
2026-04-25 23:02 38.83289 -104.66400 6894 ft 149 kts 311°
2026-04-25 23:02 38.83987 -104.67482 6954 ft 168 kts 311°
2026-04-25 23:02 38.84777 -104.68523 7069 ft 176 kts 317°
2026-04-25 23:03 38.85654 -104.69640 7240 ft 180 kts 304°
2026-04-25 23:03 38.85741 -104.71110 7121 ft 167 kts 237°
2026-04-25 23:03 38.84976 -104.72231 6893 ft 168 kts 224°
2026-04-25 23:03 38.83941 -104.72807 6681 ft 165 kts 170°
2026-04-25 23:04 38.82924 -104.72219 6395 ft 158 kts 141°
2026-04-25 23:04 38.82147 -104.71317 6199 ft 145 kts 136°
2026-04-25 23:04 38.81480 -104.70468 6192 ft 134 kts 135°
2026-04-25 23:04 38.80691 -104.69456 6298 ft 178 kts 135°
2026-04-25 23:05 38.79786 -104.68291 6708 ft 189 kts 136°
2026-04-25 23:05 38.78872 -104.67174 6896 ft 173 kts 139°
2026-04-25 23:05 38.78341 -104.65943 6848 ft 157 kts 85°
2026-04-25 23:05 38.78877 -104.64803 6745 ft 159 kts 47°
2026-04-25 23:06 38.79644 -104.63781 6718 ft 156 kts 36°
2026-04-25 23:06 38.80680 -104.63510 6540 ft 160 kts 344°
2026-04-25 23:06 38.81598 -104.64414 6668 ft 173 kts 317°
2026-04-25 23:06 38.82469 -104.65519 6774 ft 178 kts 317°
2026-04-25 23:07 38.83382 -104.66616 6868 ft 183 kts 318°
2026-04-25 23:07 38.84323 -104.67738 6974 ft 186 kts 317°
2026-04-25 23:07 38.85246 -104.68942 6994 ft 191 kts 301°
2026-04-25 23:07 38.85377 -104.70565 7014 ft 181 kts 249°
2026-04-25 23:08 38.84556 -104.71617 6836 ft 165 kts 202°
2026-04-25 23:08 38.83458 -104.72009 6557 ft 159 kts 191°
2026-04-25 23:08 38.82471 -104.71692 6266 ft 150 kts 139°
2026-04-25 23:08 38.81768 -104.70832 6191 ft 122 kts 134°
2026-04-25 23:09 38.81365 -104.70325 6192 ft 59 kts 134°
2026-04-25 23:09 38.81100 -104.69982 6190 ft 48 kts 135°
2026-04-25 23:09 38.80866 -104.69728 6192 ft 42 kts 170°
2026-04-25 23:09 38.80687 -104.69722 6190 ft 1 kts 183°
2026-04-25 23:10 38.80671 -104.69723 6190 ft 0 kts 180°
2026-04-25 23:10 38.80669 -104.69723 6190 ft 5 kts 180°
2026-04-25 23:10 38.80651 -104.69584 6190 ft 24 kts 43°
2026-04-25 23:10 38.80808 -104.69394 6190 ft 27 kts 14°
2026-04-25 23:11 38.80961 -104.69554 6190 ft 26 kts 315°
2026-04-25 23:11 38.81109 -104.69745 6190 ft 32 kts 315°
2026-04-25 23:11 38.81253 -104.69927 6190 ft 28 kts 316°
2026-04-25 23:11 38.81397 -104.70111 6190 ft 30 kts 315°
2026-04-25 23:12 38.81548 -104.70310 6190 ft 32 kts 314°
2026-04-25 23:12 38.81689 -104.70486 6190 ft 29 kts 312°
2026-04-25 23:12 38.81838 -104.70673 6190 ft 31 kts 321°
2026-04-25 23:12 38.81961 -104.70832 6189 ft 15 kts 316°
2026-04-25 23:13 38.82020 -104.70816 6189 ft 14 kts 47°
2026-04-25 23:13 38.82070 -104.70828 6190 ft 0 kts 315°